User: anonymous   Login
Location: Charleston
(38.3500°N, 81.6330°W)
Time: 15:54:41
(UTC-04:00)
Language:

Cosmos 2228 - Orbit

View from above orbital plane
View from above orbital plane
View from above satellite
View from above satellite

Ground track
Ground track

The orbit data is extracted from the following two-line orbital elements,

1 22286U 92094A   15123.17672091  .00000951  00000-0  10343-3 0  9998
2 22286 082.5242 025.4026 0020994 172.0224 188.1331 14.86878679207149
Epoch (UTC): 03 May 2015 04:14:28
Eccentricity: 0.0020994
inclination: 82.5242°
perigee height: 593 km
apogee height: 622 km
right ascension of ascending node: 25.4026°
argument of perigee: 172.0224°
revolutions per day: 14.86878679
mean anomaly at epoch: 188.1331°
orbit number at epoch: 20714

The dashed part of the orbit path shows where the satellite is in the earth's shadow,  

DLR